Location: Gleizolles
(44.4833°N, 6.7667°E)
Time: 00:27:19
(UTC+00:00)

S-56A Canister/Altair - Pass Details

Date: 02 July 2024
Orbit: 638 x 2488 km, 38.9° (Epoch: 24 July)

Event Time Altitude Azimuth Distance (km) Brightness Sun altitude
Rises 17:49:50 0° 237° (WSW) 3,250 11.3 13.7°
Reaches altitude 10° 17:52:03 10° 231° (SW) 2,470 10.7 13.3°
Maximum altitude 17:57:33 45° 159° (SSE) 1,428 8.8 12.4°
Drops below altitude 10° 18:05:35 10° 91° (E) 3,584 10.4 11.1°
Sets 18:09:26 0° 86° (E) 4,884 11.1 10.4°
